Location: Unspecified
(45.0173°N, 35.2345°E)
Time: 16:28:42
(UTC+02:00)

ISS - Pass Details

Date: 26 January 2026
Orbit: 414 x 429 km, 51.6° (Epoch: 8 February)

Event Time Altitude Azimuth Distance (km) Brightness Sun altitude
Rises 17:24:43 0° 299° (WNW) 2,364 0.8 -8.5°
Reaches altitude 10° 17:26:54 10° 307° (NW) 1,501 -0.4 -8.8°
Maximum altitude 17:30:06 40° 19° (NNE) 636 -3.1 -9.4°
Enters shadow 17:32:46 14° 87° (E) 1,298 -1.9 -9.8°
